DW3383 Weather Reports


time (UTC)temp
F
wind
direction
speed
knots
gust
knots
rain 1hr
in
rain 24hr
in
rain mn
in
humidity
%
barometer
mb
20260505230307 60 52 0.9 7.0 0.00 0.00 0.00 46 1003.6
20260505220806 60 36 1.7 7.0 0.00 0.00 0.00 44 1003.5
20260505220306 60 347 2.6 7.0 0.00 0.00 0.00 44 1003.4
20260505210807 61 15 1.7 5.2 0.00 0.00 0.00 45 1003.1
20260505210307 61 87 0.9 7.8 0.00 0.00 0.00 44 1003.0
20260505200806 60 334 2.6 5.2 0.00 0.00 0.00 56 1002.9
20260505200306 60 60 1.7 7.0 0.00 0.00 0.00 57 1002.8
20260505180806 56 305 1.7 4.3 0.00 0.00 0.00 60 1003.5
20260505180308 55 350 0.9 5.2 0.00 0.00 0.00 60 1003.5
20260505170807 53 52 0.9 4.3 0.00 0.00 0.00 62 1003.5
20260505170307 53 24 0.9 6.1 0.00 0.00 0.00 61 1003.5
20260505160805 49 297 2.6 5.2 0.00 0.00 0.00 66 1003.6
20260505160306 49 334 2.6 6.1 0.00 0.00 0.00 66 1003.7
20260505150806 48 23 1.7 4.3 0.00 0.00 0.00 66 1004.1
20260505150307 48 23 1.7 5.2 0.00 0.00 0.00 65 1004.1
20260505130306 48 36 1.7 6.1 0.00 0.00 0.00 66 1004.2
20260505120806 48 54 2.6 5.2 0.00 0.00 0.00 66 1005.1
20260505120307 48 14 1.7 6.1 0.00 0.00 0.00 66 1005.3
20260505110807 50 30 2.6 4.3 0.00 0.00 0.00 64 1005.9
20260505100807 51 298 2.6 7.0 0.00 0.00 0.00 62 1006.4
20260505100306 51 338 3.5 7.0 0.00 0.00 0.00 62 1006.4
20260505090807 52 35 2.6 5.2 0.00 0.00 0.00 61 1006.7
20260505090307 52 10 1.7 7.0 0.00 0.00 0.00 60 1006.8
20260505080806 51 355 2.6 7.8 0.00 0.00 0.00 61 1007.4
20260505080306 51 275 2.6 7.8 0.00 0.00 0.00 62 1007.5
20260505070308 52 328 2.6 6.1 0.00 0.00 0.00 62 1008.7
20260505060805 53 324 1.7 6.1 0.00 0.00 0.00 61 1009.1
20260505060306 52 332 1.7 6.1 0.00 0.00 0.00 61 1009.1
20260505050805 54 156 0.9 2.6 0.00 0.00 0.00 59 1009.7
20260505040805 57 13 0.0 1.7 0.00 0.00 0.00 56 1010.1
20260505040306 58 354 0.0 4.3 0.00 0.00 0.00 55 1010.1
20260505030806 60 29 0.0 1.7 0.00 0.00 0.00 53 1010.4
20260505030305 60 23 0.9 5.2 0.00 0.00 0.00 52 1010.3
20260505020807 62 75 0.9 2.6 0.00 0.00 0.00 51 1011.1
20260505010806 63 99 1.7 6.1 0.00 0.00 0.00 50 1011.6
20260505000805 63 81 1.7 4.3 0.00 0.00 0.00 49 1012.6
20260505000305 63 77 2.6 7.8 0.00 0.00 0.00 49 1012.7